HON22 KBBW-KOMA

Flight info

Callsign HON22
Flight time 1h 2m
Altitude 33000
Route CUZ GRI HOWRY3
Aircraft HDJT/L-SABDGRWY/H

Departure

Time 2026-05-09 03:18
Airport Broken Bow Municipal Airport (KBBW)

Arrival

Time 2026-05-09 04:21
Airport Eppley Airfield (KOMA)
Time Latitude Longitude Altitude Speed Heading
2026-05-09 02:27 41.43267 -99.63697 2525 ft 0 kts 144°
2026-05-09 03:10 41.43265 -99.63695 2525 ft 3 kts 136°
2026-05-09 03:10 41.43271 -99.63657 2526 ft 2 kts 136°
2026-05-09 03:10 41.43251 -99.63707 2521 ft 10 kts 248°
2026-05-09 03:11 41.43211 -99.63746 2524 ft 1 kts 222°
2026-05-09 03:11 41.43205 -99.63756 2521 ft 0 kts 224°
2026-05-09 03:12 41.43194 -99.63772 2520 ft 2 kts 222°
2026-05-09 03:13 41.43192 -99.63773 2520 ft 0 kts 221°
2026-05-09 03:16 41.43191 -99.63775 2521 ft 0 kts 221°
2026-05-09 03:17 41.43178 -99.63829 2524 ft 13 kts 306°
2026-05-09 03:17 41.43304 -99.63938 2520 ft 39 kts 328°
2026-05-09 03:17 41.43771 -99.64319 2536 ft 115 kts 327°
2026-05-09 03:18 41.44552 -99.64938 2808 ft 132 kts 328°
2026-05-09 03:18 41.45494 -99.65137 2833 ft 146 kts 20°
2026-05-09 03:18 41.46150 -99.64207 3374 ft 144 kts 68°
2026-05-09 03:18 41.46322 -99.62886 3992 ft 149 kts 92°
2026-05-09 03:19 41.45953 -99.61574 4587 ft 156 kts 116°
2026-05-09 03:19 41.45393 -99.60304 5047 ft 168 kts 115°
2026-05-09 03:19 41.44816 -99.58807 5297 ft 196 kts 113°
2026-05-09 03:19 41.44185 -99.57053 5541 ft 224 kts 112°
2026-05-09 03:20 41.43481 -99.55080 5910 ft 242 kts 113°
2026-05-09 03:20 41.42755 -99.53058 6638 ft 243 kts 114°
2026-05-09 03:20 41.42021 -99.51006 7287 ft 247 kts 114°
2026-05-09 03:20 41.41277 -99.48923 7974 ft 251 kts 114°
2026-05-09 03:21 41.40522 -99.46814 8664 ft 254 kts 115°
2026-05-09 03:21 41.39737 -99.44622 9015 ft 276 kts 114°
2026-05-09 03:21 41.38873 -99.42199 9014 ft 301 kts 114°
2026-05-09 03:21 41.37953 -99.39639 9019 ft 307 kts 115°
2026-05-09 03:22 41.37032 -99.37084 8985 ft 306 kts 115°
2026-05-09 03:22 41.36116 -99.34532 8982 ft 306 kts 115°
2026-05-09 03:22 41.35199 -99.31980 8982 ft 306 kts 115°
2026-05-09 03:22 41.34279 -99.29424 8985 ft 306 kts 115°
2026-05-09 03:23 41.33373 -99.26909 8984 ft 306 kts 115°
2026-05-09 03:23 41.32453 -99.24358 8982 ft 306 kts 115°
2026-05-09 03:23 41.31531 -99.21802 8983 ft 306 kts 115°
2026-05-09 03:23 41.30610 -99.19253 8983 ft 306 kts 115°
2026-05-09 03:24 41.29689 -99.16704 8984 ft 306 kts 115°
2026-05-09 03:24 41.28766 -99.14155 8984 ft 306 kts 115°
2026-05-09 03:24 41.27843 -99.11607 8983 ft 306 kts 115°
2026-05-09 03:24 41.26919 -99.09057 8984 ft 306 kts 115°
2026-05-09 03:25 41.25992 -99.06503 8972 ft 307 kts 114°
2026-05-09 03:25 41.25077 -99.03982 8973 ft 307 kts 114°
2026-05-09 03:25 41.24149 -99.01430 8972 ft 307 kts 114°
2026-05-09 03:25 41.23207 -98.98841 8973 ft 307 kts 114°
2026-05-09 03:26 41.22292 -98.96323 8973 ft 307 kts 114°
2026-05-09 03:26 41.21361 -98.93773 8966 ft 307 kts 115°
2026-05-09 03:26 41.20432 -98.91226 8966 ft 305 kts 115°
2026-05-09 03:26 41.19505 -98.88686 8966 ft 305 kts 115°
2026-05-09 03:27 41.18580 -98.86153 8963 ft 305 kts 115°
2026-05-09 03:27 41.17655 -98.83625 8963 ft 305 kts 115°
2026-05-09 03:27 41.16728 -98.81090 8963 ft 305 kts 115°
2026-05-09 03:27 41.15800 -98.78560 8960 ft 305 kts 115°
2026-05-09 03:28 41.14872 -98.76028 8961 ft 305 kts 115°
2026-05-09 03:28 41.13941 -98.73491 8960 ft 305 kts 115°
2026-05-09 03:28 41.13009 -98.70954 8970 ft 305 kts 115°
2026-05-09 03:28 41.12079 -98.68424 8970 ft 305 kts 115°
2026-05-09 03:29 41.11159 -98.65923 8973 ft 305 kts 115°
2026-05-09 03:29 41.10226 -98.63391 8972 ft 305 kts 115°
2026-05-09 03:29 41.09295 -98.60865 8973 ft 305 kts 115°
2026-05-09 03:29 41.08361 -98.58333 8972 ft 305 kts 115°
2026-05-09 03:30 41.07428 -98.55808 8973 ft 305 kts 115°
2026-05-09 03:30 41.06494 -98.53279 8972 ft 305 kts 115°
2026-05-09 03:30 41.05557 -98.50748 8972 ft 305 kts 115°
2026-05-09 03:30 41.04624 -98.48229 8967 ft 305 kts 115°
2026-05-09 03:31 41.04023 -98.45557 8968 ft 302 kts 91°
2026-05-09 03:31 41.04268 -98.42831 9007 ft 298 kts 72°
2026-05-09 03:31 41.04854 -98.40196 9007 ft 298 kts 71°
2026-05-09 03:31 41.05303 -98.37508 9008 ft 300 kts 78°
2026-05-09 03:32 41.05547 -98.34757 9008 ft 301 kts 82°
2026-05-09 03:32 41.05795 -98.32006 9011 ft 302 kts 79°
2026-05-09 03:32 41.06123 -98.29255 9009 ft 302 kts 78°
2026-05-09 03:32 41.06452 -98.26508 9007 ft 302 kts 79°
2026-05-09 03:33 41.06748 -98.23790 9004 ft 302 kts 79°
2026-05-09 03:33 41.07046 -98.21030 9003 ft 302 kts 79°
2026-05-09 03:33 41.07354 -98.18275 9000 ft 302 kts 79°
2026-05-09 03:33 41.07660 -98.15522 8998 ft 302 kts 79°
2026-05-09 03:34 41.07963 -98.12765 8993 ft 302 kts 79°
2026-05-09 03:34 41.08266 -98.10009 8990 ft 302 kts 79°
2026-05-09 03:34 41.08568 -98.07252 8989 ft 302 kts 79°
2026-05-09 03:34 41.08870 -98.04500 8990 ft 302 kts 79°
2026-05-09 03:35 41.09171 -98.01742 8987 ft 302 kts 79°
2026-05-09 03:35 41.09467 -97.99024 8989 ft 302 kts 79°
2026-05-09 03:35 41.09768 -97.96262 8990 ft 302 kts 79°
2026-05-09 03:35 41.10066 -97.93505 8984 ft 302 kts 79°
2026-05-09 03:36 41.10365 -97.90750 8982 ft 302 kts 79°
2026-05-09 03:36 41.10663 -97.87989 8980 ft 302 kts 79°
2026-05-09 03:36 41.10946 -97.85233 8978 ft 303 kts 82°
2026-05-09 03:36 41.10828 -97.82444 8945 ft 304 kts 91°
2026-05-09 03:37 41.11074 -97.79700 8948 ft 300 kts 73°
2026-05-09 03:37 41.11457 -97.76965 8990 ft 303 kts 81°
2026-05-09 03:37 41.11649 -97.74182 8997 ft 303 kts 82°
2026-05-09 03:37 41.11905 -97.71404 9000 ft 302 kts 78°
2026-05-09 03:38 41.12246 -97.68650 9001 ft 302 kts 78°
2026-05-09 03:38 41.12562 -97.65930 9002 ft 302 kts 79°
2026-05-09 03:38 41.12849 -97.63164 8999 ft 303 kts 79°
2026-05-09 03:38 41.13141 -97.60400 9002 ft 303 kts 79°
2026-05-09 03:39 41.13444 -97.57636 9006 ft 302 kts 79°
2026-05-09 03:39 41.13743 -97.54873 9003 ft 303 kts 79°
2026-05-09 03:39 41.14039 -97.52109 9000 ft 303 kts 79°
2026-05-09 03:39 41.14336 -97.49340 8985 ft 303 kts 79°
2026-05-09 03:40 41.14632 -97.46578 8983 ft 303 kts 79°
2026-05-09 03:40 41.14927 -97.43806 8984 ft 303 kts 79°
2026-05-09 03:40 41.15222 -97.41039 8985 ft 303 kts 79°
2026-05-09 03:40 41.15516 -97.38270 8986 ft 303 kts 79°
2026-05-09 03:41 41.15806 -97.35535 8988 ft 303 kts 79°
2026-05-09 03:41 41.16098 -97.32772 8989 ft 303 kts 79°
2026-05-09 03:41 41.16390 -97.30003 8989 ft 303 kts 79°
2026-05-09 03:41 41.16682 -97.27236 8983 ft 303 kts 79°
2026-05-09 03:42 41.16972 -97.24471 8983 ft 303 kts 79°
2026-05-09 03:42 41.17262 -97.21700 8983 ft 303 kts 79°
2026-05-09 03:42 41.17550 -97.18936 8982 ft 303 kts 79°
2026-05-09 03:42 41.17840 -97.16165 8981 ft 303 kts 79°
2026-05-09 03:43 41.18127 -97.13399 8978 ft 303 kts 79°
2026-05-09 03:43 41.18415 -97.10626 8977 ft 303 kts 79°
2026-05-09 03:43 41.18699 -97.07881 8975 ft 303 kts 79°
2026-05-09 03:43 41.18985 -97.05112 8973 ft 303 kts 79°
2026-05-09 03:44 41.19271 -97.02336 8976 ft 303 kts 79°
2026-05-09 03:44 41.19556 -96.99560 8978 ft 303 kts 79°
2026-05-09 03:44 41.19840 -96.96785 8973 ft 303 kts 79°
2026-05-09 03:44 41.20124 -96.94013 8976 ft 303 kts 79°
2026-05-09 03:45 41.20403 -96.91274 8978 ft 303 kts 79°
2026-05-09 03:45 41.20685 -96.88505 8981 ft 303 kts 79°
2026-05-09 03:45 41.20875 -96.86632 8982 ft 303 kts 79°
2026-05-09 03:45 41.21156 -96.83854 8988 ft 303 kts 80°
2026-05-09 03:46 41.21436 -96.81092 8993 ft 302 kts 80°
2026-05-09 03:46 41.21714 -96.78332 9022 ft 302 kts 80°
2026-05-09 03:46 41.21993 -96.75558 9024 ft 302 kts 80°
2026-05-09 03:46 41.22272 -96.72789 9029 ft 302 kts 80°
2026-05-09 03:47 41.22547 -96.70032 9028 ft 302 kts 80°
2026-05-09 03:47 41.22824 -96.67265 9028 ft 302 kts 80°
2026-05-09 03:47 41.23098 -96.64501 9028 ft 302 kts 80°
2026-05-09 03:47 41.23370 -96.61772 9028 ft 302 kts 80°
2026-05-09 03:48 41.23644 -96.59009 9028 ft 302 kts 80°
2026-05-09 03:48 41.23917 -96.56245 9004 ft 302 kts 80°
2026-05-09 03:48 41.24187 -96.53493 8762 ft 298 kts 80°
2026-05-09 03:48 41.24456 -96.50769 8079 ft 297 kts 80°
2026-05-09 03:49 41.24721 -96.48064 7450 ft 294 kts 80°
2026-05-09 03:49 41.24983 -96.45393 7022 ft 289 kts 80°
2026-05-09 03:49 41.25243 -96.42731 7013 ft 292 kts 80°
2026-05-09 03:49 41.25504 -96.40057 7012 ft 292 kts 80°
2026-05-09 03:50 41.25763 -96.37382 6999 ft 292 kts 80°
2026-05-09 03:50 41.26023 -96.34709 7001 ft 292 kts 80°
2026-05-09 03:50 41.26281 -96.32036 7005 ft 291 kts 80°
2026-05-09 03:50 41.26468 -96.29353 7006 ft 293 kts 91°
2026-05-09 03:51 41.26019 -96.26701 7015 ft 296 kts 108°
2026-05-09 03:51 41.25268 -96.24151 7021 ft 296 kts 111°
2026-05-09 03:51 41.24464 -96.21626 7026 ft 296 kts 112°
2026-05-09 03:51 41.23651 -96.19108 7028 ft 296 kts 112°
2026-05-09 03:52 41.22836 -96.16590 7027 ft 296 kts 112°
2026-05-09 03:52 41.22041 -96.14134 6619 ft 292 kts 112°
2026-05-09 03:52 41.21228 -96.11626 5969 ft 291 kts 112°
2026-05-09 03:52 41.20431 -96.09174 5359 ft 287 kts 112°
2026-05-09 03:53 41.19648 -96.06757 5019 ft 283 kts 112°
2026-05-09 03:53 41.18869 -96.04329 5021 ft 287 kts 112°
2026-05-09 03:53 41.18104 -96.01921 5015 ft 286 kts 112°
2026-05-09 03:53 41.17339 -95.99478 4993 ft 286 kts 112°
2026-05-09 03:54 41.16578 -95.97037 4987 ft 286 kts 112°
2026-05-09 03:54 41.15817 -95.94593 4985 ft 286 kts 112°
2026-05-09 03:54 41.15070 -95.92190 4994 ft 271 kts 112°
2026-05-09 03:54 41.14378 -95.89969 4980 ft 252 kts 112°
2026-05-09 03:55 41.13727 -95.87875 4981 ft 241 kts 112°
2026-05-09 03:55 41.13085 -95.85809 4973 ft 243 kts 112°
2026-05-09 03:55 41.12441 -95.83732 4985 ft 243 kts 112°
2026-05-09 03:55 41.11795 -95.81656 4983 ft 243 kts 112°
2026-05-09 03:56 41.11153 -95.79588 4978 ft 243 kts 112°
2026-05-09 03:56 41.10756 -95.77444 4992 ft 240 kts 86°
2026-05-09 03:56 41.11195 -95.75373 4821 ft 232 kts 54°
2026-05-09 03:56 41.12368 -95.73972 4554 ft 226 kts 21°
2026-05-09 03:57 41.13877 -95.73671 4287 ft 219 kts 348°
2026-05-09 03:57 41.15301 -95.74330 4038 ft 217 kts 333°
2026-05-09 03:57 41.16657 -95.75200 4007 ft 217 kts 332°
2026-05-09 03:57 41.18009 -95.76093 4009 ft 217 kts 332°
2026-05-09 03:58 41.19254 -95.77142 3949 ft 213 kts 317°
2026-05-09 03:58 41.20305 -95.78552 3806 ft 215 kts 312°
2026-05-09 03:58 41.21293 -95.80036 3658 ft 214 kts 306°
2026-05-09 03:58 41.22156 -95.81645 3503 ft 214 kts 311°
2026-05-09 03:59 41.23285 -95.82924 3320 ft 207 kts 323°
2026-05-09 03:59 41.24487 -95.84055 2742 ft 216 kts 323°
2026-05-09 03:59 41.25083 -95.84619 2565 ft 213 kts 323°
2026-05-09 03:59 41.26145 -95.85638 1898 ft 209 kts 324°
2026-05-09 04:00 41.27318 -95.86749 1347 ft 199 kts 323°
2026-05-09 04:00 41.28399 -95.87783 1167 ft 185 kts 325°
2026-05-09 04:00 41.29426 -95.88756 1008 ft 177 kts 324°
2026-05-09 04:00 41.30361 -95.89652 983 ft 164 kts 323°
2026-05-09 04:01 41.31240 -95.90464 986 ft 145 kts 316°
2026-05-09 04:01 41.31896 -95.91264 1198 ft 110 kts 313°
2026-05-09 04:01 41.32483 -95.92100 1240 ft 139 kts 315°
2026-05-09 04:01 41.33189 -95.93076 1353 ft 156 kts 315°
2026-05-09 04:02 41.33996 -95.94123 1515 ft 163 kts 316°
2026-05-09 04:02 41.34800 -95.95177 1957 ft 162 kts 315°
2026-05-09 04:02 41.35582 -95.96211 2687 ft 156 kts 314°
2026-05-09 04:02 41.36329 -95.97256 3332 ft 156 kts 302°
2026-05-09 04:03 41.36510 -95.98624 3978 ft 159 kts 258°
2026-05-09 04:03 41.35872 -95.99837 4004 ft 167 kts 214°
2026-05-09 04:03 41.34799 -96.00411 4006 ft 170 kts 202°
2026-05-09 04:03 41.33679 -96.00912 4009 ft 170 kts 202°
2026-05-09 04:04 41.32554 -96.01413 4009 ft 170 kts 202°
2026-05-09 04:04 41.31431 -96.01904 4011 ft 170 kts 198°
2026-05-09 04:04 41.30255 -96.01786 4019 ft 175 kts 157°
2026-05-09 04:04 41.29170 -96.01009 4016 ft 178 kts 152°
2026-05-09 04:05 41.28093 -96.00198 4014 ft 178 kts 152°
2026-05-09 04:05 41.27014 -95.99386 4014 ft 178 kts 152°
2026-05-09 04:05 41.25954 -95.98588 4018 ft 177 kts 152°
2026-05-09 04:05 41.24878 -95.97779 4015 ft 178 kts 152°
2026-05-09 04:06 41.23800 -95.96968 4015 ft 177 kts 152°
2026-05-09 04:06 41.22729 -95.96162 4017 ft 177 kts 152°
2026-05-09 04:06 41.21654 -95.95353 4015 ft 178 kts 152°
2026-05-09 04:06 41.20581 -95.94545 4007 ft 177 kts 152°
2026-05-09 04:07 41.19507 -95.93736 4007 ft 177 kts 152°
2026-05-09 04:07 41.18434 -95.92930 4007 ft 176 kts 152°
2026-05-09 04:07 41.17369 -95.92131 4007 ft 176 kts 152°
2026-05-09 04:07 41.16303 -95.91330 4006 ft 176 kts 152°
2026-05-09 04:08 41.15251 -95.90540 4005 ft 176 kts 152°
2026-05-09 04:08 41.14186 -95.89740 4007 ft 176 kts 152°
2026-05-09 04:08 41.13126 -95.88942 3932 ft 175 kts 152°
2026-05-09 04:08 41.12065 -95.88142 3739 ft 175 kts 152°
2026-05-09 04:09 41.11003 -95.87348 3558 ft 175 kts 152°
2026-05-09 04:09 41.09943 -95.86564 3393 ft 174 kts 152°
2026-05-09 04:09 41.08886 -95.85787 3222 ft 173 kts 152°
2026-05-09 04:09 41.07831 -95.85019 3054 ft 172 kts 152°
2026-05-09 04:10 41.06789 -95.84262 3000 ft 171 kts 152°
2026-05-09 04:10 41.05738 -95.83503 3003 ft 172 kts 152°
2026-05-09 04:10 41.04688 -95.82743 3000 ft 172 kts 152°
2026-05-09 04:10 41.03641 -95.81985 3000 ft 172 kts 152°
2026-05-09 04:11 41.02591 -95.81228 3027 ft 172 kts 152°
2026-05-09 04:11 41.01553 -95.80447 3024 ft 172 kts 141°
2026-05-09 04:11 41.00958 -95.79142 3029 ft 168 kts 94°
2026-05-09 04:11 41.01250 -95.77702 3034 ft 164 kts 47°
2026-05-09 04:12 41.02207 -95.76963 3027 ft 161 kts 13°
2026-05-09 04:12 41.03297 -95.76592 3007 ft 162 kts 12°
2026-05-09 04:12 41.04387 -95.76224 3004 ft 161 kts 12°
2026-05-09 04:12 41.05475 -95.75857 3005 ft 161 kts 12°
2026-05-09 04:13 41.06548 -95.75497 3005 ft 161 kts 12°
2026-05-09 04:13 41.07636 -95.75132 3005 ft 161 kts 12°
2026-05-09 04:13 41.08720 -95.74769 3003 ft 161 kts 12°
2026-05-09 04:13 41.09807 -95.74407 3006 ft 161 kts 12°
2026-05-09 04:14 41.10896 -95.74042 3005 ft 162 kts 12°
2026-05-09 04:14 41.11994 -95.73898 3003 ft 158 kts 347°
2026-05-09 04:14 41.13056 -95.74290 3001 ft 159 kts 342°
2026-05-09 04:14 41.14119 -95.74684 3003 ft 157 kts 342°
2026-05-09 04:15 41.15109 -95.75269 2818 ft 156 kts 325°
2026-05-09 04:15 41.15978 -95.76034 2810 ft 144 kts 326°
2026-05-09 04:15 41.16781 -95.76764 2809 ft 136 kts 325°
2026-05-09 04:15 41.17529 -95.77455 2802 ft 131 kts 324°
2026-05-09 04:16 41.18274 -95.78165 2811 ft 132 kts 324°
2026-05-09 04:16 41.19021 -95.78874 2805 ft 132 kts 324°
2026-05-09 04:16 41.19767 -95.79584 2800 ft 132 kts 324°
2026-05-09 04:16 41.20517 -95.80295 2804 ft 132 kts 323°
2026-05-09 04:17 41.21258 -95.80999 2796 ft 131 kts 322°
2026-05-09 04:17 41.21997 -95.81703 2725 ft 132 kts 323°
2026-05-09 04:17 41.22743 -95.82404 2561 ft 131 kts 322°
2026-05-09 04:17 41.23485 -95.83110 2393 ft 131 kts 323°
2026-05-09 04:18 41.24195 -95.83783 2223 ft 117 kts 323°
2026-05-09 04:18 41.24825 -95.84382 2077 ft 109 kts 322°
2026-05-09 04:18 41.25453 -95.84980 1939 ft 112 kts 323°
2026-05-09 04:18 41.26087 -95.85583 1793 ft 112 kts 323°
2026-05-09 04:19 41.26726 -95.86190 1644 ft 114 kts 323°
2026-05-09 04:19 41.27347 -95.86780 1491 ft 106 kts 324°
2026-05-09 04:19 41.27955 -95.87359 1350 ft 108 kts 324°
2026-05-09 04:19 41.28568 -95.87941 1199 ft 108 kts 324°
2026-05-09 04:20 41.29179 -95.88523 1054 ft 108 kts 324°
2026-05-09 04:20 41.29789 -95.89102 990 ft 108 kts 324°
2026-05-09 04:20 41.30354 -95.89642 982 ft 76 kts 325°
2026-05-09 04:20 41.30754 -95.90020 981 ft 69 kts 325°
2026-05-09 04:21 41.31038 -95.90304 980 ft 20 kts 299°
2026-05-09 04:21 41.30956 -95.90419 978 ft 7 kts 127°
2026-05-09 04:21 41.30730 -95.90168 981 ft 21 kts 143°
2026-05-09 04:22 41.30623 -95.90063 982 ft 18 kts 143°
2026-05-09 04:22 41.30527 -95.89974 979 ft 16 kts 145°
2026-05-09 04:22 41.30450 -95.89898 983 ft 12 kts 143°
2026-05-09 04:22 41.30383 -95.89836 984 ft 11 kts 145°
2026-05-09 04:23 41.30317 -95.89775 984 ft 12 kts 145°
2026-05-09 04:23 41.30253 -95.89712 984 ft 11 kts 145°
2026-05-09 04:23 41.30192 -95.89656 979 ft 11 kts 145°
2026-05-09 04:23 41.30119 -95.89606 978 ft 13 kts 174°
2026-05-09 04:24 41.30030 -95.89603 976 ft 12 kts 179°
2026-05-09 04:24 41.29953 -95.89604 981 ft 10 kts 181°
2026-05-09 04:24 41.29894 -95.89605 979 ft 7 kts 181°
2026-05-09 04:24 41.29848 -95.89606 979 ft 6 kts 180°
2026-05-09 04:25 41.29807 -95.89606 986 ft 6 kts 179°
2026-05-09 04:25 41.29767 -95.89605 979 ft 6 kts 179°
2026-05-09 04:25 41.29726 -95.89604 979 ft 6 kts 180°
2026-05-09 04:25 41.29692 -95.89605 979 ft 4 kts 179°
2026-05-09 04:26 41.29670 -95.89605 979 ft 2 kts 179°
2026-05-09 04:26 41.29627 -95.89605 981 ft 10 kts 180°
2026-05-09 04:26 41.29574 -95.89618 982 ft 7 kts 218°
2026-05-09 04:26 41.29561 -95.89703 982 ft 14 kts 281°
2026-05-09 04:27 41.29571 -95.89782 980 ft 0 kts 275°